Time,TemperatureF,DewpointF,PressureIn,WindDirection,WindDirectionDegrees,WindSpeedMPH,WindSpeedGustMPH,Humidity,HourlyPrecipIn,Conditions,Clouds,dailyrainin,SoftwareType,DateUTC
2013-03-25 00:00:00,29.3,22.7,30.24,SW,226,0.0,5.0,76,0.00,,,0.01,VWS V14.01,2013-03-25 05:00:00,
2013-03-25 00:05:00,29.2,21.0,30.24,SW,226,0.0,4.0,71,0.00,,,0.00,VWS V14.01,2013-03-25 05:05:00,
2013-03-25 00:10:00,29.1,21.2,30.24,SW,226,0.0,4.0,72,0.00,,,0.00,VWS V14.01,2013-03-25 05:10:00,
2013-03-25 00:15:00,29.1,21.2,30.24,SW,226,1.0,4.0,72,0.00,,,0.00,VWS V14.01,2013-03-25 05:15:00,
2013-03-25 00:20:00,29.2,21.3,30.24,SW,233,0.0,6.0,72,0.00,,,0.00,VWS V14.01,2013-03-25 05:20:00,
2013-03-25 00:25:00,29.3,21.1,30.24,NNW,341,4.0,6.0,71,0.00,,,0.00,VWS V14.01,2013-03-25 05:25:00,
2013-03-25 00:30:00,29.4,21.2,30.23,NNW,329,0.0,6.0,71,0.00,,,0.00,VWS V14.01,2013-03-25 05:30:00,
2013-03-25 00:35:00,29.6,21.4,30.23,NW,318,0.0,6.0,71,0.00,,,0.00,VWS V14.01,2013-03-25 05:35:00,
2013-03-25 00:40:00,29.7,21.5,30.23,NNW,328,4.0,6.0,71,0.00,,,0.00,VWS V14.01,2013-03-25 05:40:00,
2013-03-25 00:45:00,29.8,21.6,30.23,NNW,333,1.0,6.0,71,0.00,,,0.00,VWS V14.01,2013-03-25 05:45:00,
2013-03-25 00:50:00,29.9,21.7,30.23,NNW,340,0.0,6.0,71,0.00,,,0.00,VWS V14.01,2013-03-25 05:50:00,
2013-03-25 00:55:00,29.9,21.7,30.23,North,9,0.0,7.0,71,0.00,,,0.00,VWS V14.01,2013-03-25 05:55:00,
2013-03-25 01:00:00,29.8,21.6,30.23,North,355,0.0,7.0,71,0.00,,,0.00,VWS V14.01,2013-03-25 06:00:00,
2013-03-25 01:05:00,29.8,21.6,30.23,NNW,330,0.0,5.0,71,0.00,,,0.00,VWS V14.01,2013-03-25 06:05:00,
2013-03-25 01:10:00,29.8,21.6,30.23,NNW,336,0.0,6.0,71,0.00,,,0.00,VWS V14.01,2013-03-25 06:10:00,
2013-03-25 01:15:00,29.8,21.6,30.23,NW,325,0.0,6.0,71,0.00,,,0.00,VWS V14.01,2013-03-25 06:15:00,
2013-03-25 01:20:00,29.8,21.9,30.23,NNW,333,0.0,6.0,72,0.00,,,0.00,VWS V14.01,2013-03-25 06:20:00,
2013-03-25 01:25:00,29.8,21.9,30.23,NNW,337,0.0,6.0,72,0.00,,,0.00,VWS V14.01,2013-03-25 06:25:00,
2013-03-25 01:30:00,29.8,21.9,30.23,NW,323,1.0,7.0,72,0.00,,,0.00,VWS V14.01,2013-03-25 06:30:00,
2013-03-25 01:35:00,29.9,21.7,30.23,NW,322,4.0,5.0,71,0.00,,,0.00,VWS V14.01,2013-03-25 06:35:00,
2013-03-25 01:40:00,30.0,21.8,30.23,West,262,5.0,6.0,71,0.00,,,0.00,VWS V14.01,2013-03-25 06:40:00,
2013-03-25 01:45:00,30.0,22.1,30.23,NNW,338,0.0,6.0,72,0.00,,,0.00,VWS V14.01,2013-03-25 06:45:00,
2013-03-25 01:50:00,30.0,22.1,30.23,NNW,329,0.0,6.0,72,0.00,,,0.00,VWS V14.01,2013-03-25 06:50:00,
2013-03-25 01:55:00,30.0,22.1,30.23,NW,325,0.0,6.0,72,0.00,,,0.00,VWS V14.01,2013-03-25 06:55:00,
2013-03-25 02:00:00,30.0,22.1,30.23,WNW,283,0.0,9.0,72,0.00,,,0.00,VWS V14.01,2013-03-25 07:00:00,
2013-03-25 02:05:00,30.0,22.1,30.23,NNW,329,4.0,6.0,72,0.00,,,0.00,VWS V14.01,2013-03-25 07:05:00,
2013-03-25 02:10:00,30.1,22.2,30.23,NW,321,1.0,6.0,72,0.00,,,0.00,VWS V14.01,2013-03-25 07:10:00,
2013-03-25 02:15:00,30.1,22.2,30.23,WNW,286,0.0,6.0,72,0.00,,,0.00,VWS V14.01,2013-03-25 07:15:00,
2013-03-25 02:20:00,30.1,22.2,30.24,NW,313,5.0,7.0,72,0.00,,,0.00,VWS V14.01,2013-03-25 07:20:00,
2013-03-25 02:25:00,30.2,22.3,30.24,NW,304,1.0,7.0,72,0.00,,,0.00,VWS V14.01,2013-03-25 07:25:00,
2013-03-25 02:30:00,30.3,22.0,30.24,North,5,3.0,8.0,71,0.00,,,0.00,VWS V14.01,2013-03-25 07:30:00,
2013-03-25 02:35:00,30.4,22.1,30.23,NNE,24,5.0,6.0,71,0.00,,,0.00,VWS V14.01,2013-03-25 07:35:00,
2013-03-25 02:40:00,30.5,22.2,30.23,NNW,337,0.0,6.0,71,0.00,,,0.00,VWS V14.01,2013-03-25 07:40:00,
2013-03-25 02:45:00,30.5,22.2,30.23,NW,325,0.0,6.0,71,0.00,,,0.00,VWS V14.01,2013-03-25 07:45:00,
2013-03-25 02:50:00,30.5,22.2,30.24,NW,326,0.0,6.0,71,0.00,,,0.00,VWS V14.01,2013-03-25 07:50:00,
2013-03-25 02:55:00,30.5,22.2,30.24,NNW,336,0.0,6.0,71,0.00,,,0.00,VWS V14.01,2013-03-25 07:55:00,
2013-03-25 03:00:00,30.5,22.2,30.24,North,360,0.0,6.0,71,0.00,,,0.00,VWS V14.01,2013-03-25 08:00:00,
2013-03-25 03:05:00,30.5,22.2,30.23,NNW,341,0.0,2.0,71,0.00,,,0.00,VWS V14.01,2013-03-25 08:05:00,
2013-03-25 03:10:00,30.5,22.2,30.24,WSW,258,0.0,4.0,71,0.00,,,0.00,VWS V14.01,2013-03-25 08:10:00,
2013-03-25 03:15:00,30.4,22.1,30.24,NW,306,4.0,6.0,71,0.00,,,0.00,VWS V14.01,2013-03-25 08:15:00,
2013-03-25 03:20:00,30.5,22.2,30.23,NW,307,4.0,6.0,71,0.00,,,0.00,VWS V14.01,2013-03-25 08:20:00,
2013-03-25 03:25:00,30.5,22.2,30.23,NW,326,0.0,6.0,71,0.00,,,0.00,VWS V14.01,2013-03-25 08:25:00,
2013-03-25 03:30:00,30.4,22.1,30.23,West,279,1.0,6.0,71,0.00,,,0.00,VWS V14.01,2013-03-25 08:30:00,
2013-03-25 03:35:00,30.3,22.0,30.23,WNW,302,6.0,6.0,71,0.00,,,0.00,VWS V14.01,2013-03-25 08:35:00,
2013-03-25 03:40:00,30.3,22.4,30.23,NW,309,4.0,6.0,72,0.00,,,0.00,VWS V14.01,2013-03-25 08:40:00,
2013-03-25 03:45:00,30.2,22.3,30.23,NW,307,0.0,6.0,72,0.00,,,0.00,VWS V14.01,2013-03-25 08:45:00,
2013-03-25 03:50:00,30.2,22.3,30.23,NW,304,0.0,6.0,72,0.00,,,0.00,VWS V14.01,2013-03-25 08:50:00,
2013-03-25 03:55:00,30.1,22.2,30.23,WNW,302,2.0,6.0,72,0.00,,,0.00,VWS V14.01,2013-03-25 08:55:00,
2013-03-25 04:00:00,30.1,22.2,30.23,West,272,0.0,6.0,72,0.00,,,0.00,VWS V14.01,2013-03-25 09:00:00,
2013-03-25 04:05:00,30.1,22.2,30.23,NW,317,0.0,7.0,72,0.00,,,0.00,VWS V14.01,2013-03-25 09:05:00,
2013-03-25 04:10:00,30.1,22.5,30.23,WNW,303,1.0,7.0,73,0.00,,,0.00,VWS V14.01,2013-03-25 09:10:00,
2013-03-25 04:15:00,30.1,22.5,30.23,NNW,338,4.0,7.0,73,0.00,,,0.00,VWS V14.01,2013-03-25 09:15:00,
2013-03-25 04:20:00,30.1,22.5,30.23,NNE,15,0.0,7.0,73,0.00,,,0.00,VWS V14.01,2013-03-25 09:20:00,
2013-03-25 04:25:00,30.1,22.5,30.23,North,350,0.0,7.0,73,0.00,,,0.00,VWS V14.01,2013-03-25 09:25:00,
2013-03-25 04:30:00,30.1,22.5,30.23,NW,313,2.0,7.0,73,0.00,,,0.00,VWS V14.01,2013-03-25 09:30:00,
2013-03-25 04:35:00,30.1,22.5,30.24,North,360,0.0,7.0,73,0.00,,,0.00,VWS V14.01,2013-03-25 09:35:00,
2013-03-25 04:40:00,30.1,22.8,30.24,North,5,1.0,10.0,74,0.00,,,0.00,VWS V14.01,2013-03-25 09:40:00,
2013-03-25 04:45:00,30.1,22.8,30.24,NNW,342,4.0,10.0,74,0.00,,,0.00,VWS V14.01,2013-03-25 09:45:00,
2013-03-25 04:50:00,30.1,22.8,30.24,WNW,298,1.0,10.0,74,0.00,,,0.00,VWS V14.01,2013-03-25 09:50:00,
2013-03-25 04:55:00,30.1,23.1,30.24,NW,307,2.0,10.0,75,0.00,,,0.00,VWS V14.01,2013-03-25 09:55:00,
2013-03-25 05:00:00,30.1,23.1,30.24,NNW,334,3.0,11.0,75,0.00,,,0.00,VWS V14.01,2013-03-25 10:00:00,
2013-03-25 05:05:00,30.0,23.0,30.24,NW,317,9.0,10.0,75,0.00,,,0.00,VWS V14.01,2013-03-25 10:05:00,
2013-03-25 05:10:00,29.9,23.3,30.24,NNW,345,0.0,10.0,76,0.00,,,0.00,VWS V14.01,2013-03-25 10:10:00,
2013-03-25 05:15:00,29.8,23.2,30.25,NNE,19,0.0,10.0,76,0.00,,,0.00,VWS V14.01,2013-03-25 10:15:00,
2013-03-25 05:20:00,29.7,23.1,30.25,North,9,0.0,10.0,76,0.00,,,0.00,VWS V14.01,2013-03-25 10:20:00,
2013-03-25 05:25:00,29.6,23.0,30.25,NW,317,5.0,10.0,76,0.00,,,0.00,VWS V14.01,2013-03-25 10:25:00,
2013-03-25 05:30:00,29.6,23.0,30.25,North,5,2.0,10.0,76,0.00,,,0.00,VWS V14.01,2013-03-25 10:30:00,
2013-03-25 05:35:00,29.5,22.6,30.25,WNW,302,1.0,6.0,75,0.00,,,0.00,VWS V14.01,2013-03-25 10:35:00,
2013-03-25 05:40:00,29.5,22.6,30.25,WNW,288,4.0,8.0,75,0.00,,,0.00,VWS V14.01,2013-03-25 10:40:00,
2013-03-25 05:45:00,29.5,22.6,30.25,NNW,342,2.0,9.0,75,0.00,,,0.00,VWS V14.01,2013-03-25 10:45:00,
2013-03-25 05:50:00,29.4,22.5,30.25,WNW,291,1.0,9.0,75,0.00,,,0.00,VWS V14.01,2013-03-25 10:50:00,
2013-03-25 05:55:00,29.3,22.4,30.26,NNW,329,0.0,9.0,75,0.00,,,0.00,VWS V14.01,2013-03-25 10:55:00,
2013-03-25 06:00:00,29.2,22.3,30.25,NNW,344,1.0,9.0,75,0.00,,,0.00,VWS V14.01,2013-03-25 11:00:00,
2013-03-25 06:05:00,29.1,22.5,30.25,North,5,0.0,6.0,76,0.00,,,0.00,VWS V14.01,2013-03-25 11:05:00,
2013-03-25 06:10:00,29.0,22.4,30.25,WNW,290,0.0,6.0,76,0.00,,,0.00,VWS V14.01,2013-03-25 11:10:00,
2013-03-25 06:15:00,28.9,22.3,30.25,NNW,327,4.0,6.0,76,0.00,,,0.00,VWS V14.01,2013-03-25 11:15:00,
2013-03-25 06:20:00,28.8,22.5,30.25,NNW,330,3.0,6.0,77,0.00,,,0.00,VWS V14.01,2013-03-25 11:20:00,
2013-03-25 06:25:00,28.7,22.4,30.25,NW,311,6.0,11.0,77,0.00,,,0.00,VWS V14.01,2013-03-25 11:25:00,
2013-03-25 06:30:00,28.7,22.4,30.25,NW,307,1.0,11.0,77,0.00,,,0.00,VWS V14.01,2013-03-25 11:30:00,
2013-03-25 06:35:00,28.6,22.3,30.26,NNW,338,0.0,5.0,77,0.00,,,0.00,VWS V14.01,2013-03-25 11:35:00,
2013-03-25 06:40:00,28.5,22.2,30.26,NNW,333,0.0,8.0,77,0.00,,,0.00,VWS V14.01,2013-03-25 11:40:00,
2013-03-25 06:45:00,28.5,22.2,30.26,NNE,22,4.0,10.0,77,0.00,,,0.00,VWS V14.01,2013-03-25 11:45:00,
2013-03-25 06:50:00,28.5,22.2,30.27,NNW,329,7.0,12.0,77,0.00,,,0.00,VWS V14.01,2013-03-25 11:50:00,
2013-03-25 06:55:00,28.4,22.1,30.27,NW,309,0.0,12.0,77,0.00,,,0.00,VWS V14.01,2013-03-25 11:55:00,
2013-03-25 07:00:00,28.4,22.1,30.27,NW,317,4.0,12.0,77,0.00,,,0.00,VWS V14.01,2013-03-25 12:00:00,
2013-03-25 07:06:00,28.4,22.1,30.28,NNE,13,1.0,11.0,77,0.00,,,0.00,VWS V14.01,2013-03-25 12:06:00,
2013-03-25 07:11:00,28.5,21.9,30.28,North,5,5.0,16.0,76,0.00,,,0.00,VWS V14.01,2013-03-25 12:11:00,
2013-03-25 07:16:00,28.5,21.3,30.28,NW,314,10.0,16.0,74,0.00,,,0.00,VWS V14.01,2013-03-25 12:16:00,
2013-03-25 07:21:00,28.6,20.7,30.28,NNE,28,10.0,16.0,72,0.00,,,0.00,VWS V14.01,2013-03-25 12:21:00,
2013-03-25 07:26:00,28.8,20.3,30.29,North,360,5.0,16.0,70,0.00,,,0.00,VWS V14.01,2013-03-25 12:26:00,
2013-03-25 07:30:00,28.8,19.9,30.29,West,272,8.0,16.0,69,0.00,,,0.00,VWS V14.01,2013-03-25 12:30:00,
2013-03-25 07:31:00,28.8,19.9,30.29,NW,321,9.0,16.0,69,0.00,,,0.00,VWS V14.01,2013-03-25 12:31:00,
2013-03-25 07:36:00,28.8,19.9,30.29,NW,311,1.0,18.0,69,0.00,,,0.00,VWS V14.01,2013-03-25 12:36:00,
2013-03-25 07:41:00,28.7,19.8,30.29,WNW,301,5.0,18.0,69,0.00,,,0.00,VWS V14.01,2013-03-25 12:41:00,
2013-03-25 07:46:00,28.7,19.5,30.30,WNW,299,4.0,18.0,68,0.00,,,0.00,VWS V14.01,2013-03-25 12:46:00,
2013-03-25 07:51:00,28.7,19.5,30.30,NNE,19,5.0,5.0,68,0.00,,,0.00,VWS V14.01,2013-03-25 12:51:00,
2013-03-25 07:56:00,28.7,19.5,30.30,NNE,17,6.0,16.0,68,0.00,,,0.00,VWS V14.01,2013-03-25 12:56:00,
2013-03-25 08:00:00,28.8,19.6,30.30,NNE,32,1.0,16.0,68,0.00,,,0.00,VWS V14.01,2013-03-25 13:00:00,
2013-03-25 08:01:00,28.8,19.6,30.30,NNE,32,1.0,16.0,68,0.00,,,0.00,VWS V14.01,2013-03-25 13:01:00,
2013-03-25 08:06:00,28.9,19.7,30.30,NNW,327,6.0,10.0,68,0.00,,,0.00,VWS V14.01,2013-03-25 13:06:00,
2013-03-25 08:11:00,29.0,19.8,30.30,NNW,348,10.0,12.0,68,0.00,,,0.00,VWS V14.01,2013-03-25 13:11:00,
2013-03-25 08:17:00,29.2,19.6,30.31,West,279,7.0,18.0,67,0.00,,,0.00,VWS V14.01,2013-03-25 13:17:00,
2013-03-25 08:22:00,29.4,19.8,30.31,NNE,15,10.0,18.0,67,0.00,,,0.00,VWS V14.01,2013-03-25 13:22:00,
2013-03-25 08:27:00,29.6,19.6,30.31,NW,318,4.0,18.0,66,0.00,,,0.00,VWS V14.01,2013-03-25 13:27:00,
2013-03-25 08:30:00,29.8,20.2,30.32,NNE,29,5.0,18.0,67,0.00,,,0.00,VWS V14.01,2013-03-25 13:30:00,
2013-03-25 08:32:00,29.9,20.3,30.32,NNE,24,2.0,5.0,67,0.00,,,0.00,VWS V14.01,2013-03-25 13:32:00,
2013-03-25 08:37:00,30.2,20.2,30.32,NW,311,4.0,14.0,66,0.00,,,0.00,VWS V14.01,2013-03-25 13:37:00,
2013-03-25 08:42:00,30.3,20.0,30.32,North,9,3.0,18.0,65,0.00,,,0.00,VWS V14.01,2013-03-25 13:42:00,
2013-03-25 08:47:00,30.6,20.6,30.32,NNW,333,0.0,18.0,66,0.00,,,0.00,VWS V14.01,2013-03-25 13:47:00,
2013-03-25 08:52:00,30.9,20.5,30.32,WNW,300,7.0,18.0,65,0.00,,,0.00,VWS V14.01,2013-03-25 13:52:00,
2013-03-25 08:57:00,31.0,20.3,30.33,WNW,301,7.0,18.0,64,0.00,,,0.00,VWS V14.01,2013-03-25 13:57:00,
2013-03-25 09:00:00,31.0,20.3,30.33,NNW,343,11.0,18.0,64,0.00,,,0.00,VWS V14.01,2013-03-25 14:00:00,
2013-03-25 09:02:00,31.0,20.3,30.33,NNW,348,6.0,11.0,64,0.00,,,0.00,VWS V14.01,2013-03-25 14:02:00,
2013-03-25 09:07:00,31.3,20.9,30.33,North,360,12.0,16.0,65,0.00,,,0.00,VWS V14.01,2013-03-25 14:07:00,
2013-03-25 09:12:00,31.2,20.1,30.33,NW,322,8.0,20.0,63,0.00,,,0.00,VWS V14.01,2013-03-25 14:12:00,
2013-03-25 09:17:00,31.3,20.5,30.33,North,360,6.0,20.0,64,0.00,,,0.00,VWS V14.01,2013-03-25 14:17:00,
2013-03-25 09:22:00,31.8,21.0,30.33,NNW,344,3.0,20.0,64,0.00,,,0.00,VWS V14.01,2013-03-25 14:22:00,
2013-03-25 09:27:00,32.3,21.1,30.33,NNW,346,2.0,20.0,63,0.00,,,0.00,VWS V14.01,2013-03-25 14:27:00,
2013-03-25 09:30:00,32.7,21.5,30.33,WNW,292,2.0,20.0,63,0.00,,,0.00,VWS V14.01,2013-03-25 14:30:00,
2013-03-25 09:32:00,32.7,21.5,30.33,West,269,1.0,2.0,63,0.00,,,0.00,VWS V14.01,2013-03-25 14:32:00,
2013-03-25 09:37:00,33.0,21.4,30.34,NW,322,12.0,15.0,62,0.00,,,0.00,VWS V14.01,2013-03-25 14:37:00,
2013-03-25 09:42:00,32.8,21.2,30.34,NNE,21,9.0,19.0,62,0.00,,,0.00,VWS V14.01,2013-03-25 14:42:00,
2013-03-25 09:47:00,32.6,21.0,30.34,NNE,13,8.0,19.0,62,0.00,,,0.00,VWS V14.01,2013-03-25 14:47:00,
2013-03-25 09:52:00,32.4,20.9,30.34,NNW,336,8.0,19.0,62,0.00,,,0.00,VWS V14.01,2013-03-25 14:52:00,
2013-03-25 09:57:00,32.5,21.3,30.34,WNW,300,6.0,19.0,63,0.00,,,0.00,VWS V14.01,2013-03-25 14:57:00,
2013-03-25 10:00:00,32.9,21.7,30.35,NW,326,10.0,19.0,63,0.00,,,0.00,VWS V14.01,2013-03-25 15:00:00,
2013-03-25 10:02:00,33.0,21.8,30.35,NNW,347,9.0,10.0,63,0.00,,,0.00,VWS V14.01,2013-03-25 15:02:00,
2013-03-25 10:07:00,33.5,22.3,30.35,WNW,295,8.0,14.0,63,0.00,,,0.00,VWS V14.01,2013-03-25 15:07:00,
2013-03-25 10:12:00,33.5,21.9,30.35,NNE,14,5.0,16.0,62,0.00,,,0.00,VWS V14.01,2013-03-25 15:12:00,
2013-03-25 10:17:00,33.5,21.9,30.35,NNW,342,9.0,16.0,62,0.00,,,0.00,VWS V14.01,2013-03-25 15:17:00,
2013-03-25 10:22:00,33.5,21.5,30.35,NNE,28,5.0,16.0,61,0.00,,,0.00,VWS V14.01,2013-03-25 15:22:00,
2013-03-25 10:27:00,33.3,22.1,30.35,North,360,6.0,19.0,63,0.00,,,0.00,VWS V14.01,2013-03-25 15:27:00,
2013-03-25 10:30:00,34.3,23.0,30.36,NW,326,10.0,19.0,63,0.00,,,0.00,VWS V14.01,2013-03-25 15:30:00,
2013-03-25 10:32:00,34.4,22.7,30.36,WNW,283,9.0,10.0,62,0.00,,,0.00,VWS V14.01,2013-03-25 15:32:00,
2013-03-25 10:37:00,34.9,22.4,30.36,NNW,337,8.0,14.0,60,0.00,,,0.00,VWS V14.01,2013-03-25 15:37:00,
2013-03-25 10:42:00,34.4,21.6,30.36,NW,323,8.0,15.0,59,0.00,,,0.00,VWS V14.01,2013-03-25 15:42:00,
2013-03-25 10:47:00,34.2,22.2,30.36,NNW,344,7.0,16.0,61,0.00,,,0.00,VWS V14.01,2013-03-25 15:47:00,
2013-03-25 10:52:00,34.2,21.8,30.36,NW,310,12.0,16.0,60,0.00,,,0.00,VWS V14.01,2013-03-25 15:52:00,
2013-03-25 10:57:00,34.5,22.1,30.36,NNE,13,7.0,16.0,60,0.00,,,0.00,VWS V14.01,2013-03-25 15:57:00,
2013-03-25 11:00:00,35.0,22.1,30.36,NNW,330,8.0,16.0,59,0.00,,,0.00,VWS V14.01,2013-03-25 16:00:00,
2013-03-25 11:02:00,35.1,22.2,30.36,NW,319,6.0,20.0,59,0.00,,,0.00,VWS V14.01,2013-03-25 16:02:00,
2013-03-25 11:07:00,35.2,21.9,30.37,North,360,7.0,20.0,58,0.00,,,0.00,VWS V14.01,2013-03-25 16:07:00,
2013-03-25 11:12:00,35.3,22.4,30.37,WNW,303,10.0,20.0,59,0.00,,,0.00,VWS V14.01,2013-03-25 16:12:00,
2013-03-25 11:17:00,35.6,21.9,30.37,NE,47,8.0,20.0,57,0.00,,,0.00,VWS V14.01,2013-03-25 16:17:00,
2013-03-25 11:22:00,35.5,22.6,30.37,NNE,24,4.0,20.0,59,0.00,,,0.00,VWS V14.01,2013-03-25 16:22:00,
2013-03-25 11:27:00,35.7,22.0,30.37,NNE,33,7.0,20.0,57,0.00,,,0.00,VWS V14.01,2013-03-25 16:27:00,
2013-03-25 11:30:00,35.9,22.6,30.36,NNE,16,8.0,20.0,58,0.00,,,0.00,VWS V14.01,2013-03-25 16:30:00,
2013-03-25 11:32:00,36.1,23.2,30.37,NE,41,12.0,14.0,59,0.00,,,0.00,VWS V14.01,2013-03-25 16:32:00,
2013-03-25 11:37:00,36.8,22.6,30.37,NNE,20,12.0,16.0,56,0.00,,,0.00,VWS V14.01,2013-03-25 16:37:00,
2013-03-25 11:43:00,36.1,21.9,30.37,WNW,292,12.0,16.0,56,0.00,,,0.00,VWS V14.01,2013-03-25 16:43:00,
2013-03-25 11:48:00,36.6,23.2,30.37,NNW,342,4.0,16.0,58,0.00,,,0.00,VWS V14.01,2013-03-25 16:48:00,
2013-03-25 11:53:00,37.2,22.5,30.37,NNW,340,8.0,16.0,55,0.00,,,0.00,VWS V14.01,2013-03-25 16:53:00,
2013-03-25 11:58:00,37.0,22.4,30.37,NNW,340,6.0,19.0,55,0.00,,,0.00,VWS V14.01,2013-03-25 16:58:00,
2013-03-25 12:00:00,36.7,22.5,30.37,NE,43,9.0,19.0,56,0.00,,,0.00,VWS V14.01,2013-03-25 17:00:00,
2013-03-25 12:03:00,36.6,22.4,30.37,WNW,291,2.0,13.0,56,0.00,,,0.00,VWS V14.01,2013-03-25 17:03:00,
2013-03-25 12:08:00,36.4,22.2,30.37,North,10,8.0,14.0,56,0.00,,,0.00,VWS V14.01,2013-03-25 17:08:00,
2013-03-25 12:13:00,36.5,22.3,30.38,North,355,11.0,14.0,56,0.00,,,0.00,VWS V14.01,2013-03-25 17:13:00,
2013-03-25 12:18:00,36.2,22.0,30.38,NNW,342,8.0,16.0,56,0.00,,,0.00,VWS V14.01,2013-03-25 17:18:00,
2013-03-25 12:23:00,36.4,22.6,30.38,NW,319,4.0,16.0,57,0.00,,,0.00,VWS V14.01,2013-03-25 17:23:00,
2013-03-25 12:28:00,36.7,22.5,30.38,NNW,339,15.0,18.0,56,0.00,,,0.00,VWS V14.01,2013-03-25 17:28:00,
2013-03-25 12:30:00,36.4,21.8,30.38,North,360,6.0,18.0,55,0.00,,,0.00,VWS V14.01,2013-03-25 17:30:00,
2013-03-25 12:33:00,36.3,21.7,30.38,NNE,12,3.0,14.0,55,0.00,,,0.00,VWS V14.01,2013-03-25 17:33:00,
2013-03-25 12:38:00,36.7,22.1,30.38,North,10,9.0,14.0,55,0.00,,,0.00,VWS V14.01,2013-03-25 17:38:00,
2013-03-25 12:43:00,36.8,22.6,30.38,North,360,4.0,14.0,56,0.00,,,0.00,VWS V14.01,2013-03-25 17:43:00,
2013-03-25 12:48:00,37.2,23.0,30.38,NNE,18,19.0,19.0,56,0.00,,,0.00,VWS V14.01,2013-03-25 17:48:00,
2013-03-25 12:53:00,37.6,22.5,30.38,North,360,9.0,19.0,54,0.00,,,0.00,VWS V14.01,2013-03-25 17:53:00,
2013-03-25 12:58:00,37.9,22.8,30.38,NNW,348,9.0,19.0,54,0.00,,,0.00,VWS V14.01,2013-03-25 17:58:00,
2013-03-25 13:00:00,37.9,22.3,30.38,NNE,19,6.0,19.0,53,0.00,,,0.00,VWS V14.01,2013-03-25 18:00:00,
2013-03-25 13:03:00,38.2,23.0,30.37,North,355,8.0,12.0,54,0.00,,,0.00,VWS V14.01,2013-03-25 18:03:00,
2013-03-25 13:08:00,38.0,22.4,30.38,NW,317,10.0,15.0,53,0.00,,,0.00,VWS V14.01,2013-03-25 18:08:00,
2013-03-25 13:13:00,37.8,23.1,30.38,NW,324,11.0,15.0,55,0.00,,,0.00,VWS V14.01,2013-03-25 18:13:00,
2013-03-25 13:18:00,37.8,22.7,30.37,NW,304,4.0,15.0,54,0.00,,,0.00,VWS V14.01,2013-03-25 18:18:00,
2013-03-25 13:23:00,37.7,23.0,30.37,WNW,301,4.0,15.0,55,0.00,,,0.00,VWS V14.01,2013-03-25 18:23:00,
2013-03-25 13:28:00,37.9,23.6,30.37,NNE,24,9.0,15.0,56,0.00,,,0.00,VWS V14.01,2013-03-25 18:28:00,
2013-03-25 13:30:00,38.5,22.9,30.37,North,349,5.0,15.0,53,0.00,,,0.00,VWS V14.01,2013-03-25 18:30:00,
2013-03-25 13:33:00,38.5,22.4,30.37,NE,49,6.0,13.0,52,0.00,,,0.00,VWS V14.01,2013-03-25 18:33:00,
2013-03-25 13:38:00,38.2,22.1,30.37,NNW,331,3.0,16.0,52,0.00,,,0.00,VWS V14.01,2013-03-25 18:38:00,
2013-03-25 13:43:00,38.9,22.8,30.37,NNW,343,2.0,18.0,52,0.00,,,0.00,VWS V14.01,2013-03-25 18:43:00,
2013-03-25 13:48:00,38.5,22.4,30.37,NNW,344,4.0,18.0,52,0.00,,,0.00,VWS V14.01,2013-03-25 18:48:00,
2013-03-25 13:53:00,38.5,22.4,30.36,WNW,296,7.0,18.0,52,0.00,,,0.00,VWS V14.01,2013-03-25 18:53:00,
2013-03-25 13:58:00,38.7,21.7,30.36,NNW,341,10.0,18.0,50,0.00,,,0.00,VWS V14.01,2013-03-25 18:58:00,
2013-03-25 14:00:00,38.7,22.1,30.37,NNE,24,11.0,18.0,51,0.00,,,0.00,VWS V14.01,2013-03-25 19:00:00,
2013-03-25 14:03:00,38.8,22.7,30.37,NNW,344,5.0,11.0,52,0.00,,,0.00,VWS V14.01,2013-03-25 19:03:00,
2013-03-25 14:08:00,39.1,23.0,30.36,NNW,340,4.0,11.0,52,0.00,,,0.00,VWS V14.01,2013-03-25 19:08:00,
2013-03-25 14:13:00,39.3,22.2,30.36,North,9,12.0,13.0,50,0.00,,,0.00,VWS V14.01,2013-03-25 19:13:00,
2013-03-25 14:18:00,38.6,22.0,30.36,NW,320,9.0,13.0,51,0.00,,,0.00,VWS V14.01,2013-03-25 19:18:00,
2013-03-25 14:23:00,38.4,21.9,30.36,NNE,15,8.0,13.0,51,0.00,,,0.00,VWS V14.01,2013-03-25 19:23:00,
2013-03-25 14:28:00,38.6,21.6,30.36,West,281,6.0,15.0,50,0.00,,,0.00,VWS V14.01,2013-03-25 19:28:00,
2013-03-25 14:30:00,38.7,21.7,30.36,NE,40,5.0,15.0,50,0.00,,,0.00,VWS V14.01,2013-03-25 19:30:00,
2013-03-25 14:33:00,38.7,22.1,30.36,NNW,333,5.0,11.0,51,0.00,,,0.00,VWS V14.01,2013-03-25 19:33:00,
2013-03-25 14:38:00,38.5,22.0,30.36,NNW,336,7.0,13.0,51,0.00,,,0.00,VWS V14.01,2013-03-25 19:38:00,
2013-03-25 14:43:00,38.2,21.7,30.36,North,350,8.0,13.0,51,0.00,,,0.00,VWS V14.01,2013-03-25 19:43:00,
2013-03-25 14:48:00,38.3,21.8,30.36,NW,311,6.0,13.0,51,0.00,,,0.00,VWS V14.01,2013-03-25 19:48:00,
2013-03-25 14:53:00,38.6,22.5,30.36,WNW,293,7.0,14.0,52,0.00,,,0.00,VWS V14.01,2013-03-25 19:53:00,
2013-03-25 14:58:00,39.1,22.0,30.36,NW,304,4.0,14.0,50,0.00,,,0.00,VWS V14.01,2013-03-25 19:58:00,
2013-03-25 15:00:00,38.8,22.2,30.36,NNW,343,2.0,14.0,51,0.00,,,0.00,VWS V14.01,2013-03-25 20:00:00,
2013-03-25 15:03:00,38.7,22.6,30.36,WNW,286,11.0,11.0,52,0.00,,,0.00,VWS V14.01,2013-03-25 20:03:00,
2013-03-25 15:08:00,38.7,22.1,30.36,NW,318,5.0,14.0,51,0.00,,,0.00,VWS V14.01,2013-03-25 20:08:00,
2013-03-25 15:13:00,39.1,22.0,30.36,NW,325,9.0,15.0,50,0.00,,,0.00,VWS V14.01,2013-03-25 20:13:00,
2013-03-25 15:18:00,39.3,21.8,30.35,NW,305,4.0,15.0,49,0.00,,,0.00,VWS V14.01,2013-03-25 20:18:00,
2013-03-25 15:23:00,39.4,21.8,30.35,North,360,7.0,15.0,49,0.00,,,0.00,VWS V14.01,2013-03-25 20:23:00,
2013-03-25 15:28:00,39.0,21.5,30.36,NE,55,2.0,15.0,49,0.00,,,0.00,VWS V14.01,2013-03-25 20:28:00,
2013-03-25 15:30:00,38.9,21.9,30.36,North,5,6.0,15.0,50,0.00,,,0.00,VWS V14.01,2013-03-25 20:30:00,
2013-03-25 15:33:00,38.8,21.8,30.36,WNW,294,5.0,12.0,50,0.00,,,0.00,VWS V14.01,2013-03-25 20:33:00,
2013-03-25 15:38:00,39.0,22.0,30.36,North,355,5.0,13.0,50,0.00,,,0.00,VWS V14.01,2013-03-25 20:38:00,
2013-03-25 15:43:00,39.1,22.0,30.35,NNE,19,5.0,13.0,50,0.00,,,0.00,VWS V14.01,2013-03-25 20:43:00,
2013-03-25 15:48:00,39.3,22.2,30.35,NW,314,8.0,13.0,50,0.00,,,0.00,VWS V14.01,2013-03-25 20:48:00,
2013-03-25 15:53:00,39.3,22.7,30.35,NW,309,8.0,13.0,51,0.00,,,0.00,VWS V14.01,2013-03-25 20:53:00,
2013-03-25 15:58:00,39.7,21.6,30.35,NNW,331,11.0,14.0,48,0.00,,,0.00,VWS V14.01,2013-03-25 20:58:00,
2013-03-25 16:00:00,39.8,22.2,30.35,NNE,28,8.0,15.0,49,0.00,,,0.00,VWS V14.01,2013-03-25 21:00:00,
2013-03-25 16:03:00,39.8,22.2,30.35,NE,34,5.0,10.0,49,0.00,,,0.00,VWS V14.01,2013-03-25 21:03:00,
2013-03-25 16:08:00,39.6,21.5,30.35,North,351,9.0,10.0,48,0.00,,,0.00,VWS V14.01,2013-03-25 21:08:00,
2013-03-25 16:13:00,39.6,22.0,30.35,North,5,0.0,10.0,49,0.00,,,0.00,VWS V14.01,2013-03-25 21:13:00,
2013-03-25 16:18:00,39.9,21.8,30.35,North,355,3.0,12.0,48,0.00,,,0.00,VWS V14.01,2013-03-25 21:18:00,
2013-03-25 16:23:00,39.9,21.3,30.35,NNW,343,6.0,12.0,47,0.00,,,0.00,VWS V14.01,2013-03-25 21:23:00,
2013-03-25 16:28:00,39.5,21.5,30.35,North,350,4.0,12.0,48,0.00,,,0.00,VWS V14.01,2013-03-25 21:28:00,
2013-03-25 16:30:00,39.6,21.5,30.35,NNE,15,6.0,12.0,48,0.00,,,0.00,VWS V14.01,2013-03-25 21:30:00,
2013-03-25 16:33:00,39.7,22.1,30.35,NNW,331,9.0,12.0,49,0.00,,,0.00,VWS V14.01,2013-03-25 21:33:00,
2013-03-25 16:38:00,39.7,20.6,30.35,NNE,17,5.0,12.0,46,0.00,,,0.00,VWS V14.01,2013-03-25 21:38:00,
2013-03-25 16:43:00,39.5,20.5,30.35,NNE,16,8.0,13.0,46,0.00,,,0.00,VWS V14.01,2013-03-25 21:43:00,
2013-03-25 16:48:00,39.5,20.5,30.35,NNW,329,6.0,13.0,46,0.00,,,0.00,VWS V14.01,2013-03-25 21:48:00,
2013-03-25 16:53:00,39.7,21.1,30.35,North,360,1.0,13.0,47,0.00,,,0.00,VWS V14.01,2013-03-25 21:53:00,
2013-03-25 16:58:00,39.8,20.2,30.35,NW,309,5.0,13.0,45,0.00,,,0.00,VWS V14.01,2013-03-25 21:58:00,
2013-03-25 17:00:00,39.7,20.1,30.35,North,360,4.0,13.0,45,0.00,,,0.00,VWS V14.01,2013-03-25 22:00:00,
2013-03-25 17:03:00,39.6,20.5,30.35,North,9,5.0,13.0,46,0.00,,,0.00,VWS V14.01,2013-03-25 22:03:00,
2013-03-25 17:08:00,39.5,20.5,30.35,North,360,10.0,13.0,46,0.00,,,0.00,VWS V14.01,2013-03-25 22:08:00,
2013-03-25 17:13:00,39.4,20.4,30.35,NNW,343,8.0,13.0,46,0.00,,,0.00,VWS V14.01,2013-03-25 22:13:00,
2013-03-25 17:18:00,39.4,20.4,30.35,North,5,9.0,14.0,46,0.00,,,0.00,VWS V14.01,2013-03-25 22:18:00,
2013-03-25 17:23:00,39.3,20.3,30.35,NE,52,7.0,14.0,46,0.00,,,0.00,VWS V14.01,2013-03-25 22:23:00,
2013-03-25 17:28:00,39.6,20.5,30.35,NE,43,5.0,14.0,46,0.00,,,0.00,VWS V14.01,2013-03-25 22:28:00,
2013-03-25 17:30:00,39.6,20.0,30.35,NW,318,6.0,14.0,45,0.00,,,0.00,VWS V14.01,2013-03-25 22:30:00,
2013-03-25 17:33:00,39.5,20.5,30.35,North,355,5.0,9.0,46,0.00,,,0.00,VWS V14.01,2013-03-25 22:33:00,
2013-03-25 17:38:00,39.2,20.2,30.35,NW,310,8.0,18.0,46,0.00,,,0.00,VWS V14.01,2013-03-25 22:38:00,
2013-03-25 17:43:00,39.3,20.3,30.35,WNW,303,0.0,18.0,46,0.00,,,0.00,VWS V14.01,2013-03-25 22:43:00,
2013-03-25 17:48:00,39.3,20.3,30.35,NE,46,5.0,18.0,46,0.00,,,0.00,VWS V14.01,2013-03-25 22:48:00,
2013-03-25 17:53:00,39.7,20.6,30.35,NNW,330,5.0,18.0,46,0.00,,,0.00,VWS V14.01,2013-03-25 22:53:00,
2013-03-25 17:58:00,39.6,20.0,30.35,North,355,5.0,18.0,45,0.00,,,0.00,VWS V14.01,2013-03-25 22:58:00,
2013-03-25 18:00:00,39.3,20.3,30.36,WNW,302,7.0,18.0,46,0.00,,,0.00,VWS V14.01,2013-03-25 23:00:00,
2013-03-25 18:03:00,39.2,20.2,30.35,North,355,8.0,18.0,46,0.00,,,0.00,VWS V14.01,2013-03-25 23:03:00,
2013-03-25 18:08:00,39.0,19.5,30.35,NW,322,14.0,18.0,45,0.00,,,0.00,VWS V14.01,2013-03-25 23:08:00,
2013-03-25 18:13:00,38.8,19.3,30.35,WNW,290,5.0,18.0,45,0.00,,,0.00,VWS V14.01,2013-03-25 23:13:00,
2013-03-25 18:18:00,38.6,19.1,30.35,NW,314,0.0,18.0,45,0.00,,,0.00,VWS V14.01,2013-03-25 23:18:00,
2013-03-25 18:23:00,38.7,19.2,30.35,NW,309,6.0,18.0,45,0.00,,,0.00,VWS V14.01,2013-03-25 23:23:00,
2013-03-25 18:28:00,38.7,19.7,30.36,NNE,13,7.0,18.0,46,0.00,,,0.00,VWS V14.01,2013-03-25 23:28:00,
2013-03-25 18:30:00,38.7,19.2,30.36,NE,41,7.0,18.0,45,0.00,,,0.00,VWS V14.01,2013-03-25 23:30:00,
2013-03-25 18:33:00,38.6,19.1,30.35,NNW,331,7.0,10.0,45,0.00,,,0.00,VWS V14.01,2013-03-25 23:33:00,
2013-03-25 18:38:00,38.4,19.4,30.36,North,360,8.0,13.0,46,0.00,,,0.00,VWS V14.01,2013-03-25 23:38:00,
2013-03-25 18:43:00,38.3,19.4,30.36,NNE,17,7.0,13.0,46,0.00,,,0.00,VWS V14.01,2013-03-25 23:43:00,
2013-03-25 18:48:00,38.2,19.3,30.36,North,10,6.0,13.0,46,0.00,,,0.00,VWS V14.01,2013-03-25 23:48:00,
2013-03-25 18:53:00,38.1,19.2,30.36,North,355,1.0,13.0,46,0.00,,,0.00,VWS V14.01,2013-03-25 23:53:00,
2013-03-25 18:58:00,38.0,19.6,30.36,NE,36,5.0,13.0,47,0.00,,,0.00,VWS V14.01,2013-03-25 23:58:00,
2013-03-25 19:00:00,38.0,19.6,30.37,NW,314,8.0,13.0,47,0.00,,,0.00,VWS V14.01,2013-03-26 00:00:00,
2013-03-25 19:03:00,38.0,19.1,30.37,NW,314,5.0,15.0,46,0.00,,,0.00,VWS V14.01,2013-03-26 00:03:00,
2013-03-25 19:08:00,37.9,19.0,30.37,NNW,327,0.0,15.0,46,0.00,,,0.00,VWS V14.01,2013-03-26 00:08:00,
2013-03-25 19:13:00,37.7,19.3,30.37,NNW,342,5.0,16.0,47,0.00,,,0.00,VWS V14.01,2013-03-26 00:13:00,
2013-03-25 19:18:00,37.6,19.2,30.38,North,350,8.0,16.0,47,0.00,,,0.00,VWS V14.01,2013-03-26 00:18:00,
2013-03-25 19:23:00,37.3,18.9,30.38,North,355,8.0,16.0,47,0.00,,,0.00,VWS V14.01,2013-03-26 00:23:00,
2013-03-25 19:28:00,37.2,18.8,30.38,NNW,340,5.0,16.0,47,0.00,,,0.00,VWS V14.01,2013-03-26 00:28:00,
2013-03-25 19:30:00,37.1,18.8,30.38,NNW,338,5.0,16.0,47,0.00,,,0.00,VWS V14.01,2013-03-26 00:30:00,
2013-03-25 19:33:00,37.0,19.1,30.38,NNW,343,6.0,10.0,48,0.00,,,0.00,VWS V14.01,2013-03-26 00:33:00,
2013-03-25 19:38:00,36.8,18.5,30.38,NNW,338,5.0,15.0,47,0.00,,,0.00,VWS V14.01,2013-03-26 00:38:00,
2013-03-25 19:43:00,36.6,18.8,30.38,North,360,4.0,15.0,48,0.00,,,0.00,VWS V14.01,2013-03-26 00:43:00,
2013-03-25 19:48:00,36.4,19.1,30.38,NNW,342,5.0,15.0,49,0.00,,,0.00,VWS V14.01,2013-03-26 00:48:00,
2013-03-25 19:53:00,36.2,19.4,30.38,NE,41,2.0,15.0,50,0.00,,,0.00,VWS V14.01,2013-03-26 00:53:00,
2013-03-25 19:58:00,36.1,19.3,30.39,North,355,3.0,15.0,50,0.00,,,0.00,VWS V14.01,2013-03-26 00:58:00,
2013-03-25 20:00:00,36.0,19.2,30.39,North,355,7.0,15.0,50,0.00,,,0.00,VWS V14.01,2013-03-26 01:00:00,
2013-03-25 20:03:00,35.9,19.1,30.39,North,360,4.0,9.0,50,0.00,,,0.00,VWS V14.01,2013-03-26 01:03:00,
2013-03-25 20:08:00,35.7,18.9,30.39,North,349,2.0,13.0,50,0.00,,,0.00,VWS V14.01,2013-03-26 01:08:00,
2013-03-25 20:13:00,35.6,19.3,30.39,North,9,1.0,13.0,51,0.00,,,0.00,VWS V14.01,2013-03-26 01:13:00,
2013-03-25 20:18:00,35.5,19.2,30.39,NNE,22,1.0,13.0,51,0.00,,,0.00,VWS V14.01,2013-03-26 01:18:00,
2013-03-25 20:23:00,35.3,19.0,30.39,NNE,33,0.0,13.0,51,0.00,,,0.00,VWS V14.01,2013-03-26 01:23:00,
2013-03-25 20:28:00,35.1,19.3,30.40,North,355,1.0,13.0,52,0.00,,,0.00,VWS V14.01,2013-03-26 01:28:00,
2013-03-25 20:30:00,35.0,19.2,30.40,NNW,338,2.0,13.0,52,0.00,,,0.00,VWS V14.01,2013-03-26 01:30:00,
2013-03-25 20:33:00,34.8,18.5,30.40,NNW,345,1.0,6.0,51,0.00,,,0.00,VWS V14.01,2013-03-26 01:33:00,
2013-03-25 20:38:00,34.6,18.3,30.40,NW,320,2.0,6.0,51,0.00,,,0.00,VWS V14.01,2013-03-26 01:38:00,
2013-03-25 20:43:00,34.4,18.6,30.40,NNE,18,0.0,6.0,52,0.00,,,0.00,VWS V14.01,2013-03-26 01:43:00,
2013-03-25 20:48:00,34.4,19.0,30.40,NW,307,0.0,6.0,53,0.00,,,0.00,VWS V14.01,2013-03-26 01:48:00,
2013-03-25 20:53:00,34.2,18.9,30.40,NW,309,0.0,6.0,53,0.00,,,0.00,VWS V14.01,2013-03-26 01:53:00,
2013-03-25 20:58:00,34.0,19.1,30.41,NW,309,0.0,6.0,54,0.00,,,0.00,VWS V14.01,2013-03-26 01:58:00,
2013-03-25 21:00:00,33.8,18.5,30.41,NW,309,0.0,6.0,53,0.00,,,0.00,VWS V14.01,2013-03-26 02:00:00,
2013-03-25 21:03:00,33.8,18.5,30.41,NW,309,0.0,0.0,53,0.00,,,0.00,VWS V14.01,2013-03-26 02:03:00,
2013-03-25 21:08:00,33.6,18.7,30.41,NW,311,0.0,2.0,54,0.00,,,0.00,VWS V14.01,2013-03-26 02:08:00,
2013-03-25 21:13:00,33.4,18.6,30.41,NW,311,3.0,5.0,54,0.00,,,0.00,VWS V14.01,2013-03-26 02:13:00,
2013-03-25 21:18:00,33.2,18.8,30.41,North,9,0.0,8.0,55,0.00,,,0.00,VWS V14.01,2013-03-26 02:18:00,
2013-03-25 21:23:00,33.0,19.0,30.42,NNW,341,0.0,8.0,56,0.00,,,0.00,VWS V14.01,2013-03-26 02:23:00,
2013-03-25 21:28:00,32.9,18.9,30.42,NNE,25,0.0,8.0,56,0.00,,,0.00,VWS V14.01,2013-03-26 02:28:00,
2013-03-25 21:30:00,32.9,18.9,30.42,NNE,26,0.0,8.0,56,0.00,,,0.00,VWS V14.01,2013-03-26 02:30:00,
2013-03-25 21:33:00,32.9,18.9,30.42,NNE,26,0.0,0.0,56,0.00,,,0.00,VWS V14.01,2013-03-26 02:33:00,
2013-03-25 21:38:00,32.8,18.8,30.42,NNE,25,0.0,2.0,56,0.00,,,0.00,VWS V14.01,2013-03-26 02:38:00,
2013-03-25 21:43:00,32.6,19.1,30.42,NNE,32,0.0,5.0,57,0.00,,,0.00,VWS V14.01,2013-03-26 02:43:00,
2013-03-25 21:48:00,32.5,19.4,30.42,NNE,31,0.0,5.0,58,0.00,,,0.00,VWS V14.01,2013-03-26 02:48:00,
2013-03-25 21:53:00,32.3,19.2,30.42,NNE,30,0.0,5.0,58,0.00,,,0.00,VWS V14.01,2013-03-26 02:53:00,
2013-03-25 21:58:00,32.1,19.0,30.42,NNE,30,0.0,5.0,58,0.00,,,0.00,VWS V14.01,2013-03-26 02:58:00,
2013-03-25 22:00:00,32.0,19.3,30.43,NNE,29,0.0,5.0,59,0.00,,,0.00,VWS V14.01,2013-03-26 03:00:00,
2013-03-25 22:03:00,31.9,19.2,30.43,NNE,21,0.0,2.0,59,0.00,,,0.00,VWS V14.01,2013-03-26 03:03:00,
2013-03-25 22:08:00,31.8,19.1,30.43,NNE,21,0.0,2.0,59,0.00,,,0.00,VWS V14.01,2013-03-26 03:08:00,
2013-03-25 22:13:00,31.6,18.9,30.43,NNE,21,0.0,2.0,59,0.00,,,0.00,VWS V14.01,2013-03-26 03:13:00,
2013-03-25 22:18:00,31.5,18.8,30.43,NNE,21,0.0,2.0,59,0.00,,,0.00,VWS V14.01,2013-03-26 03:18:00,
2013-03-25 22:23:00,31.3,19.0,30.43,NNE,21,0.0,2.0,60,0.00,,,0.00,VWS V14.01,2013-03-26 03:23:00,
2013-03-25 22:28:00,31.2,19.0,30.43,NNE,21,0.0,2.0,60,0.00,,,0.00,VWS V14.01,2013-03-26 03:28:00,
2013-03-25 22:30:00,31.0,18.8,30.43,NNE,21,0.0,2.0,60,0.00,,,0.00,VWS V14.01,2013-03-26 03:30:00,
2013-03-25 22:33:00,30.9,18.7,30.43,NNE,21,0.0,0.0,60,0.00,,,0.00,VWS V14.01,2013-03-26 03:33:00,
2013-03-25 22:38:00,30.7,18.9,30.44,NNE,21,0.0,1.0,61,0.00,,,0.00,VWS V14.01,2013-03-26 03:38:00,
2013-03-25 22:43:00,30.6,18.8,30.44,NNE,21,0.0,1.0,61,0.00,,,0.00,VWS V14.01,2013-03-26 03:43:00,
2013-03-25 22:48:00,30.5,19.0,30.43,NNE,21,0.0,1.0,62,0.00,,,0.00,VWS V14.01,2013-03-26 03:48:00,
2013-03-25 22:53:00,30.3,18.9,30.44,NNE,21,0.0,1.0,62,0.00,,,0.00,VWS V14.01,2013-03-26 03:53:00,
2013-03-25 22:58:00,30.3,18.9,30.44,NNE,21,0.0,1.0,62,0.00,,,0.00,VWS V14.01,2013-03-26 03:58:00,
2013-03-25 23:00:00,30.2,18.8,30.44,NNE,21,0.0,1.0,62,0.00,,,0.00,VWS V14.01,2013-03-26 04:00:00,
2013-03-25 23:05:00,30.1,19.0,30.44,NNE,21,0.0,0.0,63,0.00,,,0.00,VWS V14.01,2013-03-26 04:05:00,
2013-03-25 23:10:00,30.0,19.0,30.43,NNE,21,0.0,0.0,63,0.00,,,0.00,VWS V14.01,2013-03-26 04:10:00,
2013-03-25 23:15:00,29.9,18.9,30.44,NNE,21,0.0,0.0,63,0.00,,,0.00,VWS V14.01,2013-03-26 04:15:00,
2013-03-25 23:20:00,29.8,19.1,30.44,NNE,21,0.0,0.0,64,0.00,,,0.00,VWS V14.01,2013-03-26 04:20:00,
2013-03-25 23:25:00,29.8,19.1,30.44,NNE,13,0.0,3.0,64,0.00,,,0.00,VWS V14.01,2013-03-26 04:25:00,
2013-03-25 23:30:00,29.8,19.1,30.44,NNE,13,0.0,3.0,64,0.00,,,0.00,VWS V14.01,2013-03-26 04:30:00,
2013-03-25 23:35:00,29.9,19.2,30.44,NNE,13,0.0,2.0,64,0.00,,,0.00,VWS V14.01,2013-03-26 04:35:00,
2013-03-25 23:40:00,30.1,19.4,30.44,NW,308,0.0,5.0,64,0.00,,,0.00,VWS V14.01,2013-03-26 04:40:00,
2013-03-25 23:45:00,30.2,19.5,30.44,NW,308,0.0,5.0,64,0.00,,,0.00,VWS V14.01,2013-03-26 04:45:00,
2013-03-25 23:50:00,30.3,19.6,30.44,NW,311,0.0,5.0,64,0.00,,,0.00,VWS V14.01,2013-03-26 04:50:00,
2013-03-25 23:55:00,30.4,19.7,30.44,NW,314,1.0,5.0,64,0.00,,,0.00,VWS V14.01,2013-03-26 04:55:00,